Starlink 32822

operational
NORAD ID: 62868 Int'l Des: 2025-022 Owner: SPXS Country: US Constellation: starlink
LEOCIRCULAR

Über Starlink 32822

Beschreibung wird geladen...

Live-Position

3D-Globus wird geladen...

Nächste Überflüge

Höhenverlauf

Altitude vs Time

uPlot chart will show altitude changes over time

Zweizeiliger Elementsatz

1 62868U 25022Q 25305.56916883 .00013646 00000-0 47199-3 0 9995
2 62868 53.1615 4.7681 0001621 53.7736 306.3414 15.30202192 42282
Epoch: 1. Nov. 2025 • Age: 23 hours

Aktueller Status

Höhe 475.6 km
Geschwindigkeit 7.63 km/s
Subsatellitenpunkt 14.30°N, 57.25°W
Startdatum 2. Feb. 2025
Alter 0.7 years
Typ internet

Technische Details

Klassifizierung Payload
Masse 730.00 kg
Trockenmasse 700.00 kg
Gesamtmasse 730.00 kg
Länge 0.30 m
Durchmesser 4.10 m
Spannweite 29.00 m
Form Box + pan
Hersteller SPXS
Bus-Typ Starlink V2M
Phasenstatus In Orbit
Besitzer/Staat SPXS/US

Große Konstellationen

Loading constellations...